Weather History for PALU - February, 2013

Change the Weather History Date:

Saturday, February 23, 2013

  Actual Average Record
Temperature  
Mean Temperature -26 °F -  
Max Temperature -25 °F -1 °F 39 °F (2015)
Min Temperature -28 °F -10 °F -28 °F (2013)
Degree Days  
Heating Degree Days 92    
Moisture  
Dew Point -33 °F    
Average Humidity 71    
Maximum Humidity 76    
Minimum Humidity 69    
Precipitation  
Precipitation 0.00 in - - ()
Sea Level Pressure  
Sea Level Pressure 29.81 in    
Wind  
Wind Speed - (North)    
Max Wind Speed -    
Max Gust Speed -    
Visibility 2 miles    
Events Snow    
Averages and records for this station are not official NWS values.
T = Trace of Precipitation, MM = Missing Value Source: NWS Daily Summary

Daily Weather History Graph

Daily Weather History Graph

Search for Another Location

Airport or City:

Trip Planner

Search our weather history database for the weather conditions in past years. The results will help you decide how hot, cold, wet, or windy it might be!

Date:

Astronomy

Feb. 23, 2013 Rise Set
Actual Time 9:50 AM AKST 6:46 PM AKST
Civil Twilight 8:50 AM AKST 7:46 PM AKST
Nautical Twilight 7:43 AM AKST 8:53 PM AKST
Astronomical Twilight 6:35 AM AKST 10:02 PM AKST
Moon 4:40 PM AKST (2/23) 8:58 AM AKST (2/23)
Length of Visible Light 10h 56m
Length of Day
8h 55m
Waxing Gibbous, 96% of the Moon is Illuminated
Feb 23
Waxing Gibbous
Feb 25
Full
Mar 4
Last Quarter
Mar 11
New
Mar 19
First Quarter

Hourly Weather History & Observations

Time (AKST) Temp. Dew Point Humidity Pressure Visibility Wind Dir Wind Speed Gust Speed Precip Events Conditions
12:15 AM -25.6 °F -31.0 °F 76% 29.88 in 0.8 mi North - - N/A Snow Light Snow
12:40 AM -25.6 °F -32.8 °F 69% 29.87 in 1.0 mi North - - N/A Snow Light Snow
12:55 AM -26.0 °F -32.1 °F 73% 29.86 in 1.2 mi North - - N/A Snow Light Snow
1:25 AM -25.6 °F -32.8 °F 69% 29.88 in 2.0 mi North - - N/A Snow Light Snow
1:50 AM -25.6 °F -32.8 °F 69% 29.89 in 2.5 mi North - - N/A   Partly Cloudy
1:55 AM -26.0 °F -32.4 °F 71% 29.90 in 3.0 mi North - - N/A   Partly Cloudy
2:55 AM -26.0 °F -32.3 °F 72% 29.89 in 2.5 mi North - - N/A   Partly Cloudy
3:40 AM -25.6 °F -32.8 °F 69% 29.89 in 4.0 mi North - - N/A   Clear
3:55 AM -26.3 °F -33.2 °F 70% 29.89 in 4.0 mi North - - N/A   Partly Cloudy
4:25 AM -25.6 °F -32.8 °F 69% 29.88 in 3.0 mi North - - N/A   Clear
4:51 AM -25.6 °F -32.8 °F 69% 29.87 in 2.0 mi North - - N/A   Mostly Cloudy
4:55 AM -26.3 °F -33.2 °F 70% 29.87 in 1.8 mi North - - N/A Snow Light Snow
5:20 AM -25.6 °F -32.8 °F 69% 29.86 in 2.0 mi North - - N/A Snow Light Snow Showers
5:46 AM -25.6 °F -32.8 °F 69% 29.86 in 1.8 mi North - - N/A Snow Light Snow Showers
5:55 AM -26.1 °F -32.6 °F 71% 29.86 in 1.5 mi North - - N/A Snow Light Snow Showers
6:11 AM -25.6 °F -32.8 °F 69% 29.85 in 2.0 mi North - - N/A Snow Light Snow
6:36 AM -25.6 °F -32.8 °F 69% 29.85 in 1.2 mi North - - N/A Snow Light Snow
6:55 AM -25.6 °F -31.5 °F 74% 29.85 in 1.5 mi North - - N/A Snow Light Snow
7:01 AM -25.6 °F -31.0 °F 76% 29.85 in 1.2 mi North - - N/A   Unknown
7:26 AM -25.6 °F -32.8 °F 69% 29.84 in - North - - N/A   Unknown
7:55 AM -25.8 °F -32.1 °F 72% 29.83 in - North - - N/A   Unknown
8:11 AM -25.6 °F -32.8 °F 69% 29.83 in - North - - N/A   Unknown
8:55 AM -26.1 °F -32.6 °F 71% 29.80 in - North - - N/A   Unknown
9:16 AM -25.6 °F -32.8 °F 69% 29.80 in - North - - N/A   Unknown
9:55 AM -26.1 °F -32.6 °F 71% 29.79 in - North - - N/A   Unknown
10:21 AM -25.6 °F -32.8 °F 69% 29.80 in - North - - N/A   Unknown
10:55 AM -26.5 °F -32.8 °F 72% 29.79 in - North - - N/A   Mostly Cloudy
11:55 AM -26.9 °F -33.2 °F 72% 29.78 in - North - - N/A   Unknown
12:26 PM -27.4 °F -32.8 °F 75% 29.77 in - North - - N/A   Unknown
12:55 PM -27.0 °F -33.3 °F 72% 29.77 in - North - - N/A   Unknown
1:31 PM -25.6 °F -32.8 °F 69% 29.76 in - North - - N/A   Mostly Cloudy
1:55 PM -26.3 °F -32.8 °F 71% 29.75 in - North - - N/A   Overcast
2:55 PM -26.5 °F -32.8 °F 72% 29.74 in - North - - N/A   Mostly Cloudy
3:55 PM -26.7 °F -33.7 °F 69% 29.72 in - North - - N/A   Scattered Clouds
4:55 PM -26.9 °F -33.7 °F 70% 29.71 in - North - - N/A   Clear
5:55 PM -27.0 °F -34.1 °F 69% 29.70 in - North - - N/A   Clear
6:55 PM -27.4 °F -33.7 °F 72% 29.69 in - North - - N/A   Clear
7:55 PM -27.9 °F -34.8 °F 70% 29.69 in - North - - N/A   Clear
8:55 PM -28.8 °F -35.5 °F 70% 29.68 in - North - - N/A   Clear
9:55 PM -28.7 °F -35.7 °F 69% 29.68 in - North - - N/A   Clear
10:55 PM -28.5 °F -34.8 °F 72% 29.68 in - North - - N/A   Clear
11:55 PM -27.4 °F -34.1 °F 71% 29.67 in - North - - N/A   Clear